Mt. Pocono, PA

7:27 AM EDT on July 25, 2017 (GMT -0400)
Pocono Mountains Municipal

Weather History for KMPO - December, 2012

Change the Weather History Date:

Wednesday, December 26, 2012

  Actual Average Record
Temperature  
Mean Temperature 22 °F 25 °F  
Max Temperature 28 °F 32 °F 57 °F (1964)
Min Temperature 16 °F 18 °F -10 °F (1980)
Degree Days  
Heating Degree Days 43 40  
Month to date heating degree days 777 953  
Since 1 July heating degree days 2313 2532  
Cooling Degree Days 0 0  
Month to date cooling degree days 0 0  
Year to date cooling degree days 453 314  
Moisture  
Dew Point 19 °F    
Average Humidity 78    
Maximum Humidity 96    
Minimum Humidity 60    
Precipitation  
Precipitation 0.50 in 0.10 in 2.44 in (1957)
Month to date precipitation 5.04 3.35  
Year to date precipitation 48.25 48.26  
Sea Level Pressure  
Sea Level Pressure 29.87 in    
Wind  
Wind Speed 14 mph (ENE)    
Max Wind Speed 30 mph    
Max Gust Speed 40 mph    
Visibility 4 miles    
Events Fog , Snow    
T = Trace of Precipitation, MM = Missing Value Source: NWS Daily Summary

Daily Weather History Graph

Daily Weather History Graph

Search for Another Location

Airport or City:

Trip Planner

Search our weather history database for the weather conditions in past years. The results will help you decide how hot, cold, wet, or windy it might be!

Date:

Astronomy

Dec. 26, 2012 Rise Set
Actual Time 7:25 AM EST 4:39 PM EST
Civil Twilight 6:54 AM EST 5:10 PM EST
Nautical Twilight 6:19 AM EST 5:45 PM EST
Astronomical Twilight 5:46 AM EST 6:18 PM EST
Moon 3:31 PM EST (12/26) 5:46 AM EST (12/26)
Length of Visible Light 10h 15m
Length of Day
9h 13m
Waxing Gibbous, 97% of the Moon is Illuminated
Dec 26
Waxing Gibbous
Dec 28
Full
Jan 4
Last Quarter
Jan 11
New
Jan 18
First Quarter

Hourly Weather History & Observations

Time (EST) Temp. Windchill Dew Point Humidity Pressure Visibility Wind Dir Wind Speed Gust Speed Precip Events Conditions
12:53 AM 21.0 °F 11.4 °F 17.1 °F 85% 30.27 in 10.0 mi NNW 8.1 mph - N/A   Clear
1:53 AM 19.9 °F 13.4 °F 16.0 °F 85% 30.28 in 10.0 mi NW 4.6 mph - N/A   Clear
2:53 AM 19.0 °F 11.1 °F 16.0 °F 88% 30.26 in 10.0 mi North 5.8 mph - N/A   Clear
3:53 AM 18.0 °F 11.1 °F 15.1 °F 88% 30.24 in 10.0 mi North 4.6 mph - N/A   Clear
4:53 AM 16.0 °F - 12.9 °F 88% 30.25 in 10.0 mi Calm Calm - N/A   Clear
5:53 AM 17.1 °F - 12.9 °F 84% 30.22 in 10.0 mi Calm Calm - N/A   Clear
6:53 AM 19.0 °F - 15.1 °F 85% 30.23 in 10.0 mi Calm Calm - N/A   Clear
7:53 AM 21.9 °F 14.5 °F 15.1 °F 75% 30.22 in 10.0 mi East 5.8 mph - N/A   Clear
8:53 AM 23.0 °F 13.9 °F 14.0 °F 68% 30.20 in 10.0 mi East 8.1 mph 18.4 mph N/A   Clear
9:53 AM 24.1 °F 13.1 °F 12.9 °F 62% 30.19 in 10.0 mi East 11.5 mph 19.6 mph N/A   Partly Cloudy
10:53 AM 23.0 °F 10.6 °F 15.1 °F 72% 30.15 in 10.0 mi East 13.8 mph 21.9 mph N/A   Overcast
11:53 AM 24.1 °F 11.0 °F 12.0 °F 60% 30.11 in 10.0 mi East 16.1 mph 23.0 mph N/A   Overcast
12:53 PM 23.0 °F 11.7 °F 14.0 °F 68% 30.09 in 10.0 mi East 11.5 mph - N/A   Overcast
1:34 PM 23.0 °F 11.1 °F 15.8 °F 74% 29.97 in 1.5 mi East 12.7 mph - 0.00 in Snow Light Snow
1:42 PM 21.2 °F 10.1 °F 17.6 °F 86% 29.96 in 0.5 mi East 10.4 mph 18.4 mph 0.00 in Snow Snow
1:50 PM 21.2 °F 8.9 °F 17.6 °F 86% 29.95 in 0.8 mi East 12.7 mph - 0.00 in Snow Light Snow
1:53 PM 21.9 °F 11.0 °F 18.0 °F 85% 30.04 in 0.8 mi East 10.4 mph - 0.00 in Snow Light Snow
2:10 PM 21.2 °F 8.9 °F 19.4 °F 93% 29.93 in 0.5 mi East 12.7 mph - 0.00 in Fog , Snow Snow
2:33 PM 23.0 °F 10.6 °F 19.4 °F 86% 29.91 in 0.2 mi East 13.8 mph 23.0 mph 0.00 in Fog , Snow Snow
2:53 PM 23.0 °F 9.2 °F 21.0 °F 92% 29.99 in 0.2 mi East 17.3 mph 27.6 mph 0.00 in Fog , Snow Snow
3:53 PM 26.1 °F 12.0 °F 23.0 °F 88% 29.91 in 0.2 mi East 20.7 mph 33.4 mph 0.00 in Fog , Snow Snow
4:02 PM 26.6 °F 12.0 °F 23.0 °F 86% 29.81 in 0.5 mi East 23.0 mph 33.4 mph 0.00 in Fog , Snow Snow
4:33 PM 24.8 °F 10.0 °F 21.2 °F 86% 29.79 in 1.0 mi East 21.9 mph 34.5 mph 0.00 in Snow Light Snow
4:53 PM 25.0 °F 9.5 °F 21.9 °F 88% 29.85 in 1.0 mi East 24.2 mph 33.4 mph 0.00 in Snow Light Snow
5:24 PM 24.8 °F 9.0 °F 21.2 °F 86% 29.73 in 1.5 mi East 25.3 mph 40.3 mph 0.00 in Snow Light Snow
5:53 PM 24.1 °F 9.4 °F 21.0 °F 88% 29.83 in 1.2 mi East 20.7 mph 38.0 mph 0.00 in Snow Light Snow
6:18 PM 24.8 °F 10.0 °F 21.2 °F 86% 29.73 in 2.0 mi East 21.9 mph 29.9 mph 0.00 in Snow Light Snow
6:29 PM 24.8 °F 9.3 °F 21.2 °F 86% 29.72 in 1.5 mi East 24.2 mph 33.4 mph 0.00 in Snow Light Snow
6:53 PM 25.0 °F 9.9 °F 21.9 °F 88% 29.78 in 1.5 mi East 23.0 mph 38.0 mph 0.00 in Snow Light Snow
7:02 PM 24.8 °F 10.7 °F 21.2 °F 86% 29.68 in 2.5 mi East 19.6 mph 38.0 mph 0.00 in Snow Light Snow
7:14 PM 24.8 °F 10.0 °F 21.2 °F 86% 29.68 in 3.0 mi East 21.9 mph 36.8 mph 0.00 in Snow Light Snow
7:53 PM 25.0 °F 9.2 °F 21.9 °F 88% 29.73 in 1.2 mi East 25.3 mph 36.8 mph 0.00 in   Overcast
8:35 PM 24.8 °F 10.7 °F 21.2 °F 86% 29.64 in 0.8 mi East 19.6 mph 33.4 mph 0.00 in Snow Light Snow
8:53 PM 26.1 °F 11.3 °F 21.9 °F 84% 29.70 in 1.0 mi East 23.0 mph 33.4 mph 0.00 in Snow Light Snow
9:25 PM 26.6 °F 11.4 °F 21.2 °F 80% 29.60 in 0.8 mi ENE 25.3 mph 38.0 mph 0.00 in Snow Light Snow
9:35 PM 26.6 °F 11.7 °F 21.2 °F 80% 29.57 in 1.0 mi East 24.2 mph 33.4 mph 0.00 in Snow Light Snow
9:53 PM 26.1 °F 11.3 °F 23.0 °F 88% 29.62 in 1.5 mi ENE 23.0 mph 34.5 mph 0.00 in   Overcast
10:53 PM 27.0 °F 15.2 °F 24.1 °F 89% 29.61 in 1.2 mi East 15.0 mph 32.2 mph N/A Snow Light Snow
11:04 PM 26.6 °F 10.3 °F 24.8 °F 93% 29.52 in 1.2 mi ENE 29.9 mph 38.0 mph N/A Snow Light Snow
11:15 PM 26.6 °F 11.1 °F 24.8 °F 93% 29.49 in 1.0 mi ENE 26.5 mph 40.3 mph N/A Snow Light Snow
11:23 PM 26.6 °F 12.7 °F 24.8 °F 93% 29.49 in 1.0 mi East 20.7 mph 36.8 mph N/A Snow Light Snow
11:49 PM 26.6 °F 12.7 °F 24.8 °F 93% 29.46 in 1.5 mi ENE 20.7 mph 34.5 mph N/A Snow Light Snow
11:53 PM 27.0 °F 12.2 °F 24.1 °F 89% 29.53 in 1.8 mi ENE 24.2 mph 34.5 mph N/A Snow Light Snow
11:55 PM 28.4 °F 14.4 °F 24.8 °F 86% 29.46 in 1.8 mi ENE 23.0 mph 34.5 mph N/A Snow Light Snow